Home > Weather > Ibiza > Past weeks

Flag for Spain Weather for the Past 2 Weeks in Ibiza, Ibiza, Spain

Now
64 °F

Sunny.


Feels Like: 64 °F
Forecast: 49 / 63 °F
Wind: 13 mph from Southwest

Location: Ibiza / Es Codola

Current Time: Feb 13, 2016 at 8:53:49 AM

Latest Report: Feb 13, 2016 at 8:00 AM


Visibility: 10 mi

Pressure: 29.71 "Hg

Humidity: 78%

Dew point: 57 °F

Location of IbizaLocation

Historic Weather in Ibiza — Graph

°F

Ibiza Temperature Yesterday

Maximum temperature yesterday: 66 °F (at 10:30 AM)
Minimum temperature yesterday: 61 °F (at 12:00 AM)
Average temperature yesterday: 64 °F

High & Low Weather Summary for the Past Weeks

 TemperatureHumidityPressure
High70 °F (Feb 11, 11:00 AM)100% (Jan 29, 7:30 AM)30.60 "Hg (Jan 29, 7:30 AM)
Low43 °F (Feb 5, 5:30 AM)36% (Feb 7, 4:00 PM)29.68 "Hg (Feb 13, 5:30 AM)
Average59 °F74%30.22 "Hg
* Reported Jan 29 7:00 AM — Feb 13 7:30 AM, Ibiza, Weather by CustomWeather, © 2016

Note: Actual official high and low records may vary slightly from our data, if they occured in-between our weather recording intervals... More about our weather records

Advertising

Ibiza Weather History for the Previous 24 Hours

 ConditionsComfort  
Time TempWeatherWind HumidityBarometerVisibility
7:30 AM
Sat, Feb 13
68 °FClear.20 mph60%29.68 "Hg10 mi
7:00 AM68 °FClear.20 mph60%29.68 "Hg10 mi
6:30 AM68 °FClear.18 mph60%29.68 "Hg10 mi
6:00 AM68 °FClear.22 mph60%29.68 "Hg10 mi
5:30 AM68 °FClear.18 mph60%29.68 "Hg10 mi
12:00 AM64 °FClear.25 mph78%29.74 "Hg10 mi
11:00 PM
Fri, Feb 12
63 °FClear.16 mph83%29.74 "Hg10 mi
10:30 PM63 °FClear.24 mph83%29.74 "Hg10 mi
10:00 PM63 °FClear.23 mph83%29.74 "Hg10 mi
9:30 PM63 °FClear.23 mph83%29.74 "Hg4 mi
9:00 PM63 °FClear.22 mph83%29.74 "Hg4 mi
8:30 PM63 °FLight rain. Clear.25 mph83%29.77 "Hg4 mi
8:00 PM63 °FLight rain. Clear.25 mph83%29.77 "Hg4 mi
7:30 PM64 °FLight rain. Clear.23 mph78%29.77 "Hg4 mi
7:00 PM64 °FClear.26 mph73%29.77 "Hg6 mi
6:30 PM63 °FLight rain. Clear.25 mph83%29.74 "Hg4 mi
6:00 PM64 °FSunny.26 mph73%29.77 "Hg10 mi
5:30 PM64 °FSunny.25 mph73%29.74 "Hg10 mi
5:00 PM64 °FSunny.21 mph73%29.77 "Hg10 mi
4:30 PM64 °FSunny.24 mph68%29.77 "Hg10 mi
4:00 PM64 °FSunny.18 mph68%29.77 "Hg10 mi
3:30 PM66 °FSunny.24 mph64%29.77 "Hg10 mi
3:00 PM66 °FSunny.23 mph64%29.77 "Hg10 mi
2:30 PM66 °FSunny.22 mph60%29.77 "Hg10 mi
2:00 PM64 °FSunny.24 mph64%29.77 "Hg10 mi
1:30 PM66 °FSunny.20 mph60%29.83 "Hg10 mi
1:00 PM66 °FLight rain. Clear.25 mph56%29.83 "HgN/A
12:30 PM66 °FSunny.28 mph52%29.86 "Hg10 mi
12:00 PM66 °FSunny.29 mph56%29.86 "Hg10 mi
11:30 AM66 °FSunny.29 mph56%29.83 "Hg10 mi
11:00 AM66 °FSunny.29 mph52%29.83 "Hg10 mi
10:30 AM66 °FSunny.26 mph52%29.83 "Hg10 mi
10:00 AM64 °FSunny.25 mph60%29.83 "Hg10 mi
9:30 AM64 °FSunny.22 mph52%29.83 "Hg10 mi
9:00 AM64 °FSunny.21 mph49%29.83 "Hg10 mi
8:30 AM64 °FSunny.24 mph52%29.86 "Hg10 mi
8:00 AM64 °FSunny.25 mph49%29.83 "Hg10 mi
Weather by CustomWeather, © 2016

See weather overviewHow to use our weather pages